Time,TemperatureF,DewpointF,PressureIn,WindDirection,WindDirectionDegrees,WindSpeedMPH,WindSpeedGustMPH,Humidity,HourlyPrecipIn,Conditions,Clouds,dailyrainin,SoftwareType,DateUTC
2013-01-10 00:09:00,33.4,33.0,29.88,South,174,0.0,-999.0,99,-99.99,,,0.00,weatherlink.com 1.10,2013-01-10 08:09:00,
2013-01-10 00:24:00,33.7,34.0,29.88,South,174,0.0,-999.0,99,-99.99,,,0.00,weatherlink.com 1.10,2013-01-10 08:24:00,
2013-01-10 00:39:00,33.5,33.0,29.89,South,174,0.0,-999.0,99,-99.99,,,0.00,weatherlink.com 1.10,2013-01-10 08:39:00,
2013-01-10 00:54:00,33.2,33.0,29.90,South,174,0.0,-999.0,99,-99.99,,,0.00,weatherlink.com 1.10,2013-01-10 08:54:00,
2013-01-10 01:09:00,33.2,33.0,29.90,South,174,0.0,-999.0,99,-99.99,,,0.00,weatherlink.com 1.10,2013-01-10 09:09:00,
2013-01-10 01:24:00,33.7,34.0,29.90,South,174,0.0,-999.0,99,-99.99,,,0.00,weatherlink.com 1.10,2013-01-10 09:24:00,
2013-01-10 01:39:00,33.7,34.0,29.90,South,174,0.0,-999.0,99,-99.99,,,0.00,weatherlink.com 1.10,2013-01-10 09:39:00,
2013-01-10 01:54:00,34.0,34.0,29.90,South,174,0.0,-999.0,99,-99.99,,,0.00,weatherlink.com 1.10,2013-01-10 09:54:00,
2013-01-10 02:09:00,33.5,33.0,29.91,South,174,0.0,-999.0,99,-99.99,,,0.00,weatherlink.com 1.10,2013-01-10 10:09:00,
2013-01-10 02:24:00,33.1,33.0,29.91,South,174,0.0,-999.0,99,-99.99,,,0.00,weatherlink.com 1.10,2013-01-10 10:24:00,
2013-01-10 02:39:00,32.9,33.0,29.91,South,174,0.0,-999.0,99,-99.99,,,0.00,weatherlink.com 1.10,2013-01-10 10:39:00,
2013-01-10 02:54:00,32.8,33.0,29.92,South,174,0.0,-999.0,99,-99.99,,,0.00,weatherlink.com 1.10,2013-01-10 10:54:00,
2013-01-10 03:09:00,32.9,33.0,29.92,South,174,0.0,-999.0,99,-99.99,,,0.00,weatherlink.com 1.10,2013-01-10 11:09:00,
2013-01-10 03:24:00,32.7,33.0,29.92,South,174,0.0,-999.0,99,-99.99,,,0.00,weatherlink.com 1.10,2013-01-10 11:24:00,
2013-01-10 03:39:00,32.4,32.0,29.92,South,174,0.0,-999.0,99,-99.99,,,0.00,weatherlink.com 1.10,2013-01-10 11:39:00,
2013-01-10 03:54:00,31.8,32.0,29.92,South,174,0.0,-999.0,99,-99.99,,,0.00,weatherlink.com 1.10,2013-01-10 11:54:00,
2013-01-10 04:09:00,31.8,32.0,29.92,South,174,0.0,-999.0,99,-99.99,,,0.00,weatherlink.com 1.10,2013-01-10 12:09:00,
2013-01-10 04:24:00,32.5,32.0,29.92,South,174,0.0,-999.0,99,-99.99,,,0.00,weatherlink.com 1.10,2013-01-10 12:24:00,
2013-01-10 04:39:00,32.7,33.0,29.91,South,174,0.0,-999.0,99,-99.99,,,0.00,weatherlink.com 1.10,2013-01-10 12:39:00,
2013-01-10 04:54:00,32.7,33.0,29.92,South,174,0.0,-999.0,99,-99.99,,,0.00,weatherlink.com 1.10,2013-01-10 12:54:00,
2013-01-10 05:09:00,32.5,32.0,29.92,South,174,0.0,-999.0,99,-99.99,,,0.00,weatherlink.com 1.10,2013-01-10 13:09:00,
2013-01-10 05:24:00,32.5,32.0,29.92,South,174,0.0,-999.0,99,-99.99,,,0.00,weatherlink.com 1.10,2013-01-10 13:24:00,
2013-01-10 05:39:00,32.4,32.0,29.92,South,174,0.0,-999.0,99,-99.99,,,0.00,weatherlink.com 1.10,2013-01-10 13:39:00,
2013-01-10 05:54:00,32.5,32.0,29.92,South,174,0.0,-999.0,99,-99.99,,,0.00,weatherlink.com 1.10,2013-01-10 13:54:00,
2013-01-10 06:09:00,32.9,33.0,29.92,South,174,0.0,-999.0,99,-99.99,,,0.00,weatherlink.com 1.10,2013-01-10 14:09:00,
2013-01-10 06:24:00,33.2,33.0,29.92,South,174,0.0,-999.0,99,-99.99,,,0.00,weatherlink.com 1.10,2013-01-10 14:24:00,
2013-01-10 06:39:00,32.8,33.0,29.92,South,174,0.0,-999.0,99,-99.99,,,0.00,weatherlink.com 1.10,2013-01-10 14:39:00,
2013-01-10 06:54:00,32.8,33.0,29.93,South,174,0.0,-999.0,99,-99.99,,,0.00,weatherlink.com 1.10,2013-01-10 14:54:00,
2013-01-10 07:09:00,32.9,33.0,29.93,South,174,0.0,-999.0,99,-99.99,,,0.00,weatherlink.com 1.10,2013-01-10 15:09:00,
2013-01-10 07:24:00,32.9,33.0,29.93,South,174,0.0,-999.0,99,-99.99,,,0.00,weatherlink.com 1.10,2013-01-10 15:24:00,
2013-01-10 07:39:00,32.8,33.0,29.94,South,174,0.0,-999.0,99,-99.99,,,0.00,weatherlink.com 1.10,2013-01-10 15:39:00,
2013-01-10 07:54:00,32.9,33.0,29.95,South,174,0.0,-999.0,99,-99.99,,,0.00,weatherlink.com 1.10,2013-01-10 15:54:00,
2013-01-10 08:10:00,33.1,33.0,29.95,South,174,0.0,-999.0,99,-99.99,,,0.00,weatherlink.com 1.10,2013-01-10 16:10:00,
2013-01-10 08:24:00,33.1,33.0,29.95,South,174,0.0,-999.0,99,-99.99,,,0.00,weatherlink.com 1.10,2013-01-10 16:24:00,
2013-01-10 08:40:00,33.2,33.0,29.96,South,174,0.0,-999.0,99,-99.99,,,0.00,weatherlink.com 1.10,2013-01-10 16:40:00,
2013-01-10 08:55:00,33.5,33.0,29.96,South,174,0.0,-999.0,99,-99.99,,,0.00,weatherlink.com 1.10,2013-01-10 16:55:00,
2013-01-10 09:10:00,33.8,34.0,29.96,South,174,0.0,-999.0,99,-99.99,,,0.00,weatherlink.com 1.10,2013-01-10 17:10:00,
2013-01-10 09:25:00,34.3,34.0,29.96,South,174,0.0,-999.0,99,-99.99,,,0.00,weatherlink.com 1.10,2013-01-10 17:25:00,
2013-01-10 09:39:00,34.6,34.0,29.96,South,174,0.0,-999.0,99,-99.99,,,0.00,weatherlink.com 1.10,2013-01-10 17:39:00,
2013-01-10 09:54:00,34.9,35.0,29.96,South,174,0.0,-999.0,99,-99.99,,,0.00,weatherlink.com 1.10,2013-01-10 17:54:00,
2013-01-10 10:10:00,35.0,35.0,29.96,South,174,0.0,-999.0,99,-99.99,,,0.00,weatherlink.com 1.10,2013-01-10 18:10:00,
2013-01-10 10:24:00,35.2,35.0,29.97,South,174,0.0,-999.0,99,-99.99,,,0.01,weatherlink.com 1.10,2013-01-10 18:24:00,
2013-01-10 10:39:00,35.2,35.0,29.97,South,174,0.0,-999.0,99,-99.99,,,0.02,weatherlink.com 1.10,2013-01-10 18:39:00,
2013-01-10 10:55:00,35.9,36.0,29.96,South,173,0.0,-999.0,100,-99.99,,,0.02,weatherlink.com 1.10,2013-01-10 18:55:00,
2013-01-10 11:10:00,36.5,37.0,29.96,WSW,240,0.0,-999.0,100,-99.99,,,0.02,weatherlink.com 1.10,2013-01-10 19:10:00,
2013-01-10 11:25:00,36.9,37.0,29.96,WSW,246,0.0,-999.0,100,-99.99,,,0.02,weatherlink.com 1.10,2013-01-10 19:25:00,
2013-01-10 11:40:00,37.9,38.0,29.95,WSW,239,0.0,-999.0,100,-99.99,,,0.02,weatherlink.com 1.10,2013-01-10 19:40:00,
2013-01-10 11:54:00,38.9,39.0,29.95,WSW,242,0.0,-999.0,100,-99.99,,,0.02,weatherlink.com 1.10,2013-01-10 19:54:00,
2013-01-10 12:10:00,39.3,39.0,29.95,WSW,242,0.0,-999.0,100,-99.99,,,0.02,weatherlink.com 1.10,2013-01-10 20:10:00,
2013-01-10 12:25:00,39.5,40.0,29.95,North,5,0.0,-999.0,100,-99.99,,,0.02,weatherlink.com 1.10,2013-01-10 20:25:00,
2013-01-10 12:40:00,40.2,40.0,29.95,WNW,289,1.0,-999.0,100,-99.99,,,0.02,weatherlink.com 1.10,2013-01-10 20:40:00,
2013-01-10 12:55:00,40.8,41.0,29.95,NW,315,0.0,-999.0,100,-99.99,,,0.02,weatherlink.com 1.10,2013-01-10 20:55:00,
2013-01-10 13:09:00,40.9,41.0,29.95,NE,47,0.0,-999.0,99,-99.99,,,0.02,weatherlink.com 1.10,2013-01-10 21:09:00,
2013-01-10 13:26:00,40.8,40.0,29.95,NE,47,0.0,-999.0,97,-99.99,,,0.02,weatherlink.com 1.10,2013-01-10 21:26:00,
2013-01-10 13:40:00,40.8,40.0,29.95,NE,47,0.0,-999.0,96,-99.99,,,0.02,weatherlink.com 1.10,2013-01-10 21:40:00,
2013-01-10 13:55:00,40.3,39.0,29.96,NE,41,0.0,-999.0,95,-99.99,,,0.04,weatherlink.com 1.10,2013-01-10 21:55:00,
2013-01-10 14:10:00,40.1,39.0,29.97,NE,42,0.0,-999.0,95,-99.99,,,0.04,weatherlink.com 1.10,2013-01-10 22:10:00,
2013-01-10 14:39:00,40.2,39.0,29.97,NE,42,2.0,-999.0,94,-99.99,,,0.04,weatherlink.com 1.10,2013-01-10 22:39:00,
2013-01-10 14:54:00,40.2,39.0,29.97,NE,42,0.0,-999.0,94,-99.99,,,0.05,weatherlink.com 1.10,2013-01-10 22:54:00,
2013-01-10 15:10:00,39.8,39.0,29.98,WNW,297,0.0,-999.0,95,-99.99,,,0.06,weatherlink.com 1.10,2013-01-10 23:10:00,
2013-01-10 15:24:00,39.2,38.0,29.98,WNW,297,0.0,-999.0,94,-99.99,,,0.06,weatherlink.com 1.10,2013-01-10 23:24:00,
2013-01-10 15:40:00,38.6,37.0,29.98,WNW,297,0.0,-999.0,95,-99.99,,,0.06,weatherlink.com 1.10,2013-01-10 23:40:00,
2013-01-10 15:55:00,38.8,38.0,29.99,WNW,297,0.0,-999.0,96,-99.99,,,0.06,weatherlink.com 1.10,2013-01-10 23:55:00,
2013-01-10 16:10:00,38.0,37.0,29.99,WNW,297,0.0,-999.0,96,-99.99,,,0.06,weatherlink.com 1.10,2013-01-11 00:10:00,
2013-01-10 16:25:00,37.9,37.0,29.99,WNW,297,0.0,-999.0,97,-99.99,,,0.06,weatherlink.com 1.10,2013-01-11 00:25:00,
2013-01-10 16:39:00,38.0,37.0,29.99,West,275,0.0,-999.0,97,-99.99,,,0.06,weatherlink.com 1.10,2013-01-11 00:39:00,
2013-01-10 16:55:00,38.0,37.0,29.99,West,275,0.0,-999.0,97,-99.99,,,0.06,weatherlink.com 1.10,2013-01-11 00:55:00,
2013-01-10 17:10:00,37.9,37.0,30.00,West,275,0.0,-999.0,97,-99.99,,,0.06,weatherlink.com 1.10,2013-01-11 01:10:00,
2013-01-10 17:24:00,37.3,37.0,30.00,West,275,0.0,-999.0,97,-99.99,,,0.06,weatherlink.com 1.10,2013-01-11 01:24:00,
2013-01-10 17:39:00,36.9,36.0,30.00,West,275,0.0,-999.0,97,-99.99,,,0.06,weatherlink.com 1.10,2013-01-11 01:39:00,
2013-01-10 17:55:00,36.8,36.0,30.00,West,275,0.0,-999.0,97,-99.99,,,0.06,weatherlink.com 1.10,2013-01-11 01:55:00,
2013-01-10 18:09:00,36.8,36.0,30.01,NW,317,0.0,-999.0,97,-99.99,,,0.06,weatherlink.com 1.10,2013-01-11 02:09:00,
2013-01-10 18:25:00,36.6,36.0,30.01,SW,234,0.0,-999.0,97,-99.99,,,0.06,weatherlink.com 1.10,2013-01-11 02:25:00,
2013-01-10 18:40:00,36.2,36.0,30.00,SW,234,0.0,-999.0,97,-99.99,,,0.06,weatherlink.com 1.10,2013-01-11 02:40:00,
2013-01-10 18:55:00,36.2,36.0,30.00,West,277,0.0,-999.0,98,-99.99,,,0.06,weatherlink.com 1.10,2013-01-11 02:55:00,
2013-01-10 19:10:00,36.6,35.0,30.00,WNW,300,0.0,-999.0,95,-99.99,,,0.06,weatherlink.com 1.10,2013-01-11 03:10:00,
2013-01-10 19:25:00,36.5,35.0,30.01,WNW,295,0.0,-999.0,93,-99.99,,,0.06,weatherlink.com 1.10,2013-01-11 03:25:00,
2013-01-10 19:40:00,36.6,35.0,30.01,West,273,1.0,-999.0,92,-99.99,,,0.07,weatherlink.com 1.10,2013-01-11 03:40:00,
2013-01-10 19:54:00,36.6,34.0,30.02,West,278,3.0,-999.0,91,-99.99,,,0.07,weatherlink.com 1.10,2013-01-11 03:54:00,
2013-01-10 20:10:00,36.5,34.0,30.02,WNW,298,1.0,-999.0,91,-99.99,,,0.07,weatherlink.com 1.10,2013-01-11 04:10:00,
2013-01-10 20:25:00,37.0,34.0,30.02,NW,318,1.0,-999.0,89,-99.99,,,0.07,weatherlink.com 1.10,2013-01-11 04:25:00,
2013-01-10 20:40:00,36.5,34.0,30.02,NW,313,0.0,-999.0,91,-99.99,,,0.07,weatherlink.com 1.10,2013-01-11 04:40:00,
2013-01-10 20:54:00,36.5,34.0,30.02,WNW,290,0.0,-999.0,89,-99.99,,,0.07,weatherlink.com 1.10,2013-01-11 04:54:00,
2013-01-10 21:10:00,35.9,34.0,30.01,SSW,205,0.0,-999.0,91,-99.99,,,0.07,weatherlink.com 1.10,2013-01-11 05:10:00,
2013-01-10 21:25:00,34.9,33.0,30.02,West,259,0.0,-999.0,93,-99.99,,,0.07,weatherlink.com 1.10,2013-01-11 05:25:00,
2013-01-10 21:40:00,34.7,33.0,30.01,SW,235,0.0,-999.0,93,-99.99,,,0.07,weatherlink.com 1.10,2013-01-11 05:40:00,
2013-01-10 21:55:00,33.8,32.0,30.01,NW,305,0.0,-999.0,94,-99.99,,,0.07,weatherlink.com 1.10,2013-01-11 05:55:00,
2013-01-10 22:10:00,34.6,33.0,30.01,WNW,288,1.0,-999.0,94,-99.99,,,0.07,weatherlink.com 1.10,2013-01-11 06:10:00,
2013-01-10 22:25:00,35.3,33.0,30.01,West,275,0.0,-999.0,92,-99.99,,,0.07,weatherlink.com 1.10,2013-01-11 06:25:00,
2013-01-10 22:40:00,35.2,33.0,30.01,West,275,0.0,-999.0,91,-99.99,,,0.07,weatherlink.com 1.10,2013-01-11 06:40:00,
2013-01-10 22:55:00,34.6,33.0,30.01,WNW,284,0.0,-999.0,92,-99.99,,,0.07,weatherlink.com 1.10,2013-01-11 06:55:00,
2013-01-10 23:10:00,33.7,32.0,30.01,West,272,1.0,-999.0,94,-99.99,,,0.07,weatherlink.com 1.10,2013-01-11 07:10:00,
2013-01-10 23:25:00,34.1,32.0,30.01,West,266,0.0,-999.0,93,-99.99,,,0.07,weatherlink.com 1.10,2013-01-11 07:25:00,
2013-01-10 23:40:00,33.2,32.0,30.01,West,266,0.0,-999.0,94,-99.99,,,0.07,weatherlink.com 1.10,2013-01-11 07:40:00,
2013-01-10 23:55:00,32.9,32.0,30.01,West,266,1.0,-999.0,95,-99.99,,,0.07,weatherlink.com 1.10,2013-01-11 07:55:00,